Location: Altenst�hlen
(53.5567°N, 8.9425°E)
Time: 20:12:19
(UTC+00:00)

STARLINK-24 - Pass Details

Date: 23 October 2019
Orbit: 550 x 553 km, 53.0° (Epoch: 12 November)

Event Time Altitude Azimuth Distance (km) Brightness Sun altitude
Rises 17:16:12 0° 272° (W) 2,722 9.3 -10.3°
Reaches altitude 10° 17:18:26 10° 271° (W) 1,828 7.9 -10.7°
Maximum altitude 17:22:35 84° 186° (S) 560 3.6 -11.3°
Enters shadow 17:25:43 17° 97° (E) 1,426 5.1 -11.7°
